Regional Weather Roundup
Issued by NWS

Home | Current Version | Previous Version | Graphics & Text | Print | Product List | Glossary On
Versions: 1 2 3 4 5 6 7 8 9 10 11 12 13 14 15 16 17 18 19 20 21 22 23 24 25 26 27 28 29 30 31 32 33 34 35 36 37 38 39 40 41 42 43 44 45 46 47 48 49 50
000
ASUS43 KMKX 220300
RWRWI

WISCONSIN REGIONAL WEATHER ROUNDUP
NATIONAL WEATHER SERVICE MILWAUKEE/SULLIVAN WI
900 PM CST SUN DEC 21 2014

NOTE: "FAIR" INDICATES FEW OR NO CLOUDS BELOW 12,000 FEET WITH NO
SIGNIFICANT WEATHER AND/OR OBSTRUCTIONS TO VISIBILITY.

WIZ001-002-006>008-014>016-023>028-220400-
NORTHWEST WISCONSIN

CITY           SKY/WX    TMP DP  RH WIND       PRES   REMARKS
SUPERIOR ARPT  CLOUDY    35  33  93 S5        29.75F WCI  31
ASHLAND        CLOUDY    34  33  96 CALM      29.79S
HAYWARD        LGT SNOW  34  32  92 S6        29.77S FOG     WCI  29
SIREN          CLOUDY    34  34  99 S7        29.75F FOG     WCI  28
CUMBERLAND     LGT RAIN  34  32  93 S8        29.76F WCI  27
RICE LAKE      DRIZZLE   34  34  98 SE6       29.79S WCI  29
CHETEK         LGT RAIN  35  34  98 SE8       29.78F WCI  28
LADYSMITH      LGT SNOW  35  34  96 S8        29.81F WCI  28
EAU CLAIRE     NOT AVBL
MENOMONIE      CLOUDY    38  37  95 SE9       29.78F FOG     WCI  31
NEW RICHMOND   CLOUDY    35  35 100 SE9       29.75F FOG     WCI  28
OSCEOLA        CLOUDY    37  37 100 S8        29.77S WCI  30
$$

WIZ003>005-009-010-017-018-220400-
NORTH CENTRAL WISCONSIN

CITY           SKY/WX    TMP DP  RH WIND       PRES   REMARKS
MANITOWISH WTR LGT SNOW  32  32 100 S10       29.81S WCI  24
ARBOR VITAE    LGT SNOW  34  32  93 S9        29.82S WCI  27
WOODRUFF       LGT SNOW  34  32  93 S9        29.82S WCI  27
RHINELANDER    LGT SNOW  32  30  92 S8        29.84F FOG     WCI  25
EAGLE RIVER    LGT SNOW  32  32 100 S9        29.83S WCI  24
LAND O LAKES   LGT SNOW  33  32  98 S8G17     29.84S WCI  25
PHILLIPS       FLURRIES  33  32  97 S13       29.80S WCI  23
TOMAHAWK       LGT RAIN  32  31  98 S3        29.84S
MEDFORD        DRIZZLE   32  32  99 S15       29.83S WCI  22
MERRILL        LGT SNOW  33  33 100 S8        29.86S WCI  26
$$

WIZ029-030-035-036-043>047-220400-
CENTRAL WISCONSIN

CITY           SKY/WX    TMP DP  RH WIND       PRES   REMARKS
WAUSAU         CLOUDY    34  32  92 S16       29.86F FOG     WCI  24
MOSINEE        NOT AVBL
MARSHFIELD     MIX PCPN  35  33  92 S13       29.85S FOG     WCI  26
STEVENS POINT  LGT RAIN  32  32  99 S10G17    29.90S WCI  24
WAUPACA        CLOUDY    37  32  82 SE10G17   29.95S WCI  30
WAUTOMA        NOT AVBL
WISC RAPIDS    CLOUDY    35  32  88 S10G20    29.90S FOG     WCI  27
CAMP DOUGLAS   CLOUDY    36  36 100 SE14      29.88F WCI  27
$$

WIZ011>013-019>022-031-037>040-048>050-220400-
NORTHEAST WISCONSIN

CITY           SKY/WX    TMP DP  RH WIND       PRES   REMARKS
ANTIGO         LGT SNOW  32  32 100 S14       29.88S WCI  22
SHAWANO        CLOUDY    37  32  83 S12G17    29.95F WCI  29
OCONTO         CLOUDY    35  32  91 S8        29.99S WCI  28
STURGEON BAY   CLOUDY    36  32  87 S16       30.01F WCI  26
GREEN BAY      CLOUDY    36  30  79 S20       29.97F WCI  25
MANITOWOC      CLOUDY    37  34  87 S15       30.02F WCI  28
APPLETON       CLOUDY    34  30  86 S14       29.96F WCI  24
CLINTONVILLE   CLOUDY    34  32  93 S10       29.94S WCI  26
OSHKOSH        CLOUDY    35  30  82 S13       29.97F WCI  26
$$

WIZ032>034-041-042-053>061-220400-
SOUTHWEST WISCONSIN

CITY           SKY/WX    TMP DP  RH WIND       PRES   REMARKS
LA CROSSE      CLOUDY    39  35  86 S18G28    29.83F WCI  30
SPARTA         CLOUDY    37  33  87 S12G23    29.87S WCI  29
VIROQUA        CLOUDY    35  35 100 S17       29.86S WCI  24
BOSCOBEL       CLOUDY    37  32  82 S10       29.91S WCI  30
PRAIRIE DU CHI CLOUDY    37  33  85 SE10      29.89S WCI  29
PLATTEVILLE    CLOUDY    35  32  89 SE16      29.93F WCI  25
$$

WIZ056-057-062-063-064-067-068-220400-
SOUTH CENTRAL WISCONSIN

CITY           SKY/WX    TMP DP  RH WIND       PRES   REMARKS
REEDSBURG      CLOUDY    35  32  87 S9G16     29.92S WCI  28
BARABOO/DELLS  CLOUDY    35  31  85 S15G28    29.92R WCI  25
LONE ROCK      CLOUDY    40  31  70 S13       29.94S WCI  32
MINERAL POINT  CLOUDY    36  32  87 SE16G23   29.92S WCI  26
MADISON        CLOUDY    35  30  82 S15       29.96S WCI  25
MIDDLETON      CLOUDY    37  32  83 S12       29.96S WCI  29
WATERTOWN      CLOUDY    35  31  87 SE12      29.98S WCI  26
MONROE         CLOUDY    34  32  93 S14G21    29.95F WCI  24
JANESVILLE     CLOUDY    36  32  87 S15       29.98S WCI  26
$$

WIZ051-052-058>065-066-070>072-220400-
SOUTHEAST WISCONSIN

CITY           SKY/WX    TMP DP  RH WIND       PRES   REMARKS
MILWAUKEE      CLOUDY    36  29  75 S14       30.03F WCI  27
WAUKESHA       CLOUDY    34  28  80 SE12      30.01F WCI  25
MILWAUKEE/TIMM CLOUDY    36  28  75 SE13      30.03F WCI  27
RACINE         CLOUDY    37  30  75 S14G24    30.05F WCI  28
BURLINGTON     CLOUDY    33  29  85 SE9       30.01F WCI  25
KENOSHA        CLOUDY    36  30  79 SE15G23   30.03F WCI  27
FOND DU LAC    CLOUDY    35  29  78 S16       29.97F WCI  25
SHEBOYGAN      CLOUDY    35  30  82 S16       30.02F WCI  25
WEST BEND      CLOUDY    34  28  80 S10G17    30.01S WCI  26
JUNEAU         CLOUDY    34  30  86 SE14      29.98F WCI  25
$$

LSZ147-162-220400-
LAKE SUPERIOR

STATION/POSITION TIME  TEMP    WIND        PRES    WAVE
                       AIR SEA DIR/SP/G            HT/PER
                 (UTC) (F)     (DEG/KT/KT) (MB)    (FT/S)
DEVILS ISLAND    0200   34     150/  9/ 12 1009.6F
PORT WING        0240   36     160/  6/  8 1008.5F
SAXON HARBOR     0200   37     180/  3/  7 1009.1F
$$

LMZ867-665-643>646-220400-
LAKE MICHIGAN

STATION/POSITION TIME  TEMP    WIND        PRES    WAVE
                       AIR SEA DIR/SP/G            HT/PER
                 (UTC) (F)     (DEG/KT/KT) (MB)    (FT/S)
CHAMBERS ISLAND  0200   37     150/  8/ 14 1015.9F
NORTHPORT PIER   0200   36     150/ 13/ 21 1016.6F
SISTER BAY       0228          140/ 14/ 19   N/A
ALGOMA LAKESHORE 0215          220/ 23/ 28   N/A
KEWAUNEE LAKESHO 0200   37     180/ 18/ 21 1016.1S
SHEBOYGAN LAKESH 0200   38 36  180/ 23/ 26 1017.5S
PORT WASHINGTON  0200   37     180/ 14/ 21 1017.9
MILWAUKEE LAKESH 0200   36     170/ 15/ 18   N/A
KENOSHA   LAKESH 0200   36     170/ 16/ 18 1017.3F
$$

TC  - TEMPERATURE IN CELSIUS
VSB - VISIBILITY IN STATUTE MILES
WCI - WIND CHILL INDEX
HX  - HEAT INDEX




USA.gov is the U.S. government's official web portal to all federal, state and local government web resources and services.